Date,TemperatureHighF,TemperatureAvgF,TemperatureLowF,DewpointHighF,DewpointAvgF,DewpointLowF,HumidityHigh,HumidityAvg,HumidityLow,PressureMaxIn,PressureMinIn,WindSpeedMaxMPH,WindSpeedAvgMPH,GustSpeedMaxMPH,PrecipitationSumIn
2013-5-1,36,24,12,29,18,7,95,81,73,29.96,29.65,6,0,9,0.00
2013-5-2,37,18,2,14,5,-4,78,58,28,30.04,29.97,11,1,17,0.13
2013-5-3,53,34,14,22,10,0,72,39,20,29.97,29.78,5,0,14,0.02
2013-5-4,45,32,20,29,21,12,93,67,41,29.88,29.77,6,1,14,0.00
2013-5-5,50,36,20,29,23,15,89,62,28,29.87,29.79,4,0,17,0.05
2013-5-6,47,34,26,35,27,19,92,76,50,29.83,29.74,4,0,8,0.00
2013-5-7,48,38,30,34,26,22,91,62,38,29.77,29.72,8,0,14,0.21
2013-5-8,43,33,28,34,26,22,88,75,53,29.78,29.73,2,0,5,0.14
2013-5-9,44,34,28,31,26,24,90,76,48,29.89,29.76,0,0,3,0.34
2013-5-10,51,36,20,35,24,13,82,65,36,30.01,29.87,7,0,16,0.01
2013-5-11,55,39,24,28,23,16,78,55,22,30.05,30.00,5,1,11,0.01
2013-5-12,61,48,32,31,26,18,88,47,24,30.02,29.99,14,2,21,0.01
2013-5-13,68,53,39,38,30,23,73,44,20,30.04,29.98,9,2,15,0.00
2013-5-14,39,37,36,31,29,26,76,72,67,29.98,29.94,0,0,0,0.00
2013-5-19,47,39,33,31,22,16,65,52,33,29.70,29.65,13,4,25,0.00
2013-5-20,51,39,29,29,24,19,80,56,34,29.79,29.66,10,2,18,0.00
2013-5-21,53,41,30,28,22,17,68,49,25,29.79,29.74,12,2,17,0.00
2013-5-22,63,46,28,34,25,16,81,50,16,29.84,29.73,12,1,20,0.00
2013-5-23,67,48,34,38,30,16,91,60,14,29.86,29.78,10,2,25,0.00
2013-5-24,67,51,32,38,25,16,92,46,14,29.88,29.82,4,1,14,0.00
2013-5-25,70,53,33,23,17,14,55,29,13,29.89,29.85,9,2,19,0.00
2013-5-26,63,47,37,22,18,15,50,33,16,29.86,29.84,5,0,10,0.00
2013-5-27,64,54,41,19,14,6,35,21,16,29.83,29.72,11,2,22,0.00
2013-5-28,62,48,31,24,18,12,59,33,17,29.74,29.58,14,2,24,0.00
2013-5-29,50,40,31,30,24,18,94,54,27,29.59,29.52,15,4,31,0.00
2013-5-30,52,40,32,28,21,10,85,50,23,29.72,29.57,22,5,30,0.02
2013-5-31,51,41,29,27,16,8,88,42,21,29.79,29.72,14,5,28,0.01